Погода в Раздолье

Россия / Владимирская область     56°16′21″N   39°27′21″E
темп.,
°C
ветер,
м/с
пор.,
м/с
влажн.,
%
обл.,
%
осадки,
мм/ч
давл.,
гПа
погр.,
м
2 марта, вт
вт200:00+1з51393100 0.0 1011681
03:00+1з51192100 0.0 1009847
06:00+1з51297100 0.1 1006759
09:00+1зсз51191100 0.3 1006877
12:00+1зсз5109088 0.2 10051114
15:00+1сз5118387 0.4 10051204
18:00−1сз4119286 0.1 1006863
21:00−2сз5128992 0.3 1008888
3 марта, ср
ср300:00−4сз5128878 0.0 1009914
03:00−7сз5138951 0.0 1012627
06:00−8сз5139197 0.0 1012564
09:00−7сз5128481 0.0 1014716
12:00−2зсз510750 0.0 1012912
15:00−1зсз598549 0.1 10111030
18:00−2зсз51193100 0.2 1010994
21:00−3з5119293 0.3 1010819
4 марта, чт
чт400:00−3зюз41192100 0.1 1007599
03:00−2зюз51193100 0.2 1004644
06:000зюз61397100 1.3 999943
09:000з61392100 2.3 998929
12:00+1з51088100 0.1 9971081
15:00−1сз4993100 2.2 997645
18:00−3сз3986100 0.4 997459
21:00−6сз31191100 0.4 999443
5 марта, пт
пт500:00−8сз4109455 0.0 1001381
03:00−8ссз379575 0.1 1004250
06:00−11сз239771 0.0 100650
09:00−10сз239342 0.0 1007148
12:00−5з128598 0.1 1009478
15:00−4зюз238299 0.3 1010632
18:00−6зсз2595100 0.8 1010196
21:00−10зсз239167 0.9 101225
6 марта, сб
сб600:00−11з23930 0.0 101368
03:00−11зсз379640 0.0 1013162
06:00−12зсз389616 0.0 1014203
09:00−12сз489147 0.0 1015381
12:00−11сз477825 0.0 1015784
15:00−10сз477946 0.1 1015921
18:00−12з239084 0.0 101463
21:00−14юз379342 0.0 1013144